Weather in Alta Badia

Italy     46°32′53″N   11°52′23″E
temp.,
°C
wind,
m/s
gust,
m/s
humid.,
%
clouds,
%
prec.,
mm/h
press.,
hPa
HPBL,
m
13 june, sun
sun1323:00+9nne117981 0.0 102111
02:00+8nne118237 0.0 102112
05:00+8nne118335 0.0 102114
08:00+13n23675 0.0 1021378
11:00+17nnw23498 0.0 10201514
14:00+19nnw36395 0.0 10192181
17:00+18nnw35335 0.0 10191919
20:00+13n22580 0.0 102143
14 june, mon
mon1423:00+8ne11733 0.0 102415
02:00+7ene11741 0.0 102410
05:00+6ese01710 0.0 102210
08:00+12nnw12524 0.0 1021267
11:00+18nw22340 0.0 10191101
14:00+21nw24300 0.0 10162081
17:00+21nw24342 0.0 10151935
20:00+14w11797 0.1 101747
15 june, tue
tue1523:00+10s119636 0.0 102119
02:00+11wnw119386 0.1 102128
05:00+11nw118897 0.1 102030
08:00+12nw117416 0.1 1020515
11:00+18nw21445 0.0 10181255
14:00+21wnw223536 0.0 10162043
17:00+19wsw2252100 0.3 10161282
20:00+13ssw1189100 1.3 101835
16 june, wed
wed1623:00+10s0096100 0.8 102013
02:00+9e019793 0.8 102010
05:00+9e119758 0.0 101910
08:00+12nne019039 0.3 101897
11:00+16sw117219 1.4 1017836
14:00+17sse11726 3.9 1017934
17:00+14ese2285100 3.6 1018399
20:00+12sse119258 6.5 101857
17 june, thu
thu1723:00+8se22954 0.1 102026
02:00+8se21961 0.1 102019
05:00+7sse11935 0.0 102013
08:00+12s01785 0.0 1019208
11:00+18w115284 0.1 10171441
14:00+16ssw117133 1.8 1017971
17:00+15s227564 1.6 1017886
20:00+12sse119373 4.7 101826